THOR AGENA D R/B

Satellite information

Favourite Embed

Satellite Type and Status

ROCKET BODYIN ORBIT

Key statistics

Satellite THOR AGENA D R/B at a glance.

Uptime

22557

Days in orbit

Revolutions

≈ 14.3

Per day

Orbit

SSO

Sun Synchronous Orbit

Inclination

99.1

Latest

Satellite identification and parameters

Extended collection of information and parameters for THOR AGENA D R/B.

Object identification

Identified? True

Debris? False

Object name: THOR AGENA D R/B

International designator: 1964-002A

Object number (NORAD): 733

Object ID (CCSDS): 733

Country: UNITED STATES OF AMERICA (US)

Current information (Y/N): Y

RCS size: LARGE

Orbital parameters

Period: 100.424 minutes

Inclination: 99.1224 deg

SMA: 7156.816 km

Apoapsis: 801.662 km

Periapsis: 755.701 km

RAAN: 295.6149 deg

Eccentricy: 0.003211

Argument of periapsis: 303.9421 deg

Mean anomaly: 55.871 deg

Mean motion: 14.33913567 rev/day

Mean motion (dot): 0.00000462 rev/day2

B* drag term: 0.00018247 1/REarth

Two-line elements (TLE)

Creation date: Oct. 21, 2025, 11:56 p.m.

Reference frame: TEME

Reference center: EARTH

Epoch: Oct. 21, 2025, 7:23 p.m. UTC

TLE line 0: 0 THOR AGENA D R/B

TLE line 1: 1 733U 64002A 25294.80789389 .00000462 00000-0 18247-3 0 9996

TLE line 2: 2 733 99.1224 295.6149 0032110 303.9421 55.8710 14.33913567218398

Live tracking on map

Real-time ground track for satellite THOR AGENA D R/B.

In-orbit conjunctions

A list of the most updated potential collisions computed for object THOR AGENA D R/B.

Target Orbit TCA Probability of collision Miss distance Type
FENGYUN 1C DEB SSO 2024-09-26 15:22:55 0.0002152727 146.0 (m) DEBRIS
CZ-6A DEB LEO 2024-09-21 06:24:17 0.0003975192 200.0 (m) DEBRIS
SL-8 R/B LEO 2024-08-22 20:38:15 0.0001958788 141.0 (m) ROCKET BODY
FENGYUN 1C DEB SSO 2024-07-28 21:22:00 0.0002089309 265.0 (m) DEBRIS

Associated space launch

The DSAP-1 (Defense Satellite Application Program Block 1) satellites series, also known as P-35, was the first series of military meteorologal satellites of the USA.

THOR AGENA D R/B was lifted into orbit during the mission ‘Thor SLV-2 Agena D | DSAP-1 F6 & F7’, on board a Thor SLV-2 Agena D space rocket.

The launch took place on Jan. 19, 1964, 10:59 a.m. from Space Launch Complex 2W.

For more information about the launch, click the button.

Launch to space Thor SLV-2 Agena D | DSAP-1 F6 & F7
Thor SLV-2 Agena D | DSAP-1 F6 & F7

Agency: N/A

Status: Launch Successful

Launch date: Jan. 19, 1964, 10:59 a.m. UTC

Rocket: Thor SLV-2 Agena D

Launch pad: Space Launch Complex 2W

Location: Vandenberg SFB, CA, USA

...

Latest news about this satellite

There are no fresh news available about this satellite. Check back as we update our databases every day.


Newsletter sign-up

Weekly statistics, charts and insights to help you stay on top of the space industry.